Location: Tierz
(42.1336°N, 0.3549°W)
Time: 05:41:14
(UTC+00:00)

Cosmos 1354 Rocket - Pass Details

Date: 29 October 2020
Orbit: 764 x 783 km, 74.0° (Epoch: 26 November)

Event Time Altitude Azimuth Distance (km) Brightness Sun altitude
Rises 19:10:55 0° 336° (NNW) 3,247 7.6 -25.0°
Reaches altitude 10° 19:13:19 10° 333° (NNW) 2,319 6.8 -25.5°
Maximum altitude 19:18:29 59° 255° (WSW) 889 4.5 -26.4°
Enters shadow 19:21:33 24° 184° (S) 1,549 5.5 -27.0°
